Terminal Aerodrome Forecast
Issued by NWS Atlanta, GA

Home | Current Version | Previous Version | Text Only | Print | Product List | Glossary On
Versions: 1 2 3 4 5 6 7 8 9 10 11 12 13 14 15 16 17 18 19 20 21 22 23 24 25 26 27 28 29 30 31 32 33 34 35 36 37 38 39 40 41 42 43 44 45 46 47 48 49 50
000
FTUS42 KFFC 281330 AAK
TAFATL
TAF AMD
KATL 281330Z 2814/2918 26007KT P6SM BKN080
     FM281600 26010G18KT P6SM BKN080
     FM281800 28015G25KT P6SM VCSH BKN050
     FM290000 29010KT P6SM SCT050 SCT100
     FM291500 31016G26KT P6SM SKC=

USA.gov is the U.S. government's official web portal to all federal, state and local government web resources and services.